Oak Ridge, TN

9:33 PM EST on November 19, 2017 (GMT -0500)
Oak Ridge

Weather History for KOQT - November, 2013

Change the Weather History Date:

Thursday, November 7, 2013

  Actual Average (KTYS) Record (KTYS)
Temperature  
Mean Temperature 52 °F -  
Max Temperature 60 °F 59 °F 79 °F (1996)
Min Temperature 39 °F 39 °F 21 °F (1967)
Degree Days  
Heating Degree Days 14    
Growing Degree Days 2 (Base 50)    
Moisture  
Dew Point 46 °F    
Average Humidity 75    
Maximum Humidity 96    
Minimum Humidity 36    
Precipitation  
Precipitation 0.46 in - - ()
Sea Level Pressure  
Sea Level Pressure 30.15 in    
Wind  
Wind Speed 4 mph (NW)    
Max Wind Speed 9 mph    
Max Gust Speed 21 mph    
Visibility 7 miles    
Events Rain    
Averages and records for this station are not official NWS values.
T = Trace of Precipitation, MM = Missing Value Source: NWS Daily Summary

Daily Weather History Graph

Daily Weather History Graph

Search for Another Location

Airport or City:

Trip Planner

Search our weather history database for the weather conditions in past years. The results will help you decide how hot, cold, wet, or windy it might be!

Date:

Astronomy

Nov. 07, 2013 Rise Set
Actual Time 7:05 AM EST 5:35 PM EST
Civil Twilight 6:38 AM EST 6:01 PM EST
Nautical Twilight 6:08 AM EST 6:32 PM EST
Astronomical Twilight 5:38 AM EST 7:02 PM EST
Moon 11:11 AM EST (11/7) 9:47 PM EST (11/7)
Length of Visible Light 11h 23m
Length of Day
10h 29m
Waxing Crescent, 22% of the Moon is Illuminated
Nov 7
Waxing Crescent
Nov 10
First Quarter
Nov 17
Full
Nov 25
Last Quarter
Dec 2
New

Hourly Weather History & Observations

Time (EST) Temp. Windchill Dew Point Humidity Pressure Visibility Wind Dir Wind Speed Gust Speed Precip Events Conditions
12:53 AM 60.1 °F - 57.9 °F 93% 30.07 in 5.0 mi Variable 3.5 mph - 0.00 in Rain Light Rain
1:05 AM 60.1 °F - 59.0 °F 96% 30.08 in 5.0 mi Variable 3.5 mph - 0.01 in Rain Light Rain
1:15 AM 60.1 °F - 59.0 °F 96% 30.08 in 5.0 mi Calm Calm - 0.01 in Rain Light Rain
1:40 AM 60.1 °F - 57.9 °F 93% 30.08 in 4.0 mi West 6.9 mph - 0.01 in Rain Light Rain
1:51 AM 60.8 °F - 59.0 °F 94% 30.08 in 1.8 mi Variable 4.6 mph - 0.06 in Rain Heavy Rain
1:53 AM 60.1 °F - 59.0 °F 96% 30.06 in 1.8 mi Variable 6.9 mph - 0.07 in Rain Heavy Rain
1:58 AM 60.1 °F - 57.9 °F 93% 30.08 in 2.0 mi Variable 5.8 mph - 0.03 in Rain Rain
2:11 AM 60.1 °F - 57.9 °F 93% 30.08 in 3.0 mi North - - 0.07 in Rain Rain
2:33 AM 59.0 °F - 57.9 °F 96% 30.07 in 3.0 mi SW 3.5 mph - 0.11 in Rain Light Rain
2:53 AM 59.0 °F - 57.9 °F 96% 30.04 in 3.0 mi Calm Calm - 0.14 in Rain Light Rain
3:42 AM 59.0 °F - 57.9 °F 96% 30.05 in 2.5 mi Calm Calm - 0.07 in Rain Rain
3:50 AM 59.0 °F - 57.2 °F 94% 30.05 in 4.0 mi Calm Calm - 0.09 in Rain Rain
3:53 AM 59.0 °F - 57.9 °F 96% 30.03 in 4.0 mi Calm Calm - 0.09 in Rain Rain
4:53 AM 59.0 °F - 57.9 °F 96% 30.03 in 6.0 mi SSW 3.5 mph - 0.07 in Rain Light Rain
5:53 AM 60.1 °F - 57.9 °F 93% 30.04 in 5.0 mi Variable 3.5 mph - 0.04 in Rain Rain
6:14 AM 55.9 °F - 52.0 °F 87% 30.08 in 7.0 mi NW 6.9 mph 17.3 mph 0.04 in Rain Light Rain
6:53 AM 54.0 °F - 50.0 °F 86% 30.09 in 10.0 mi Variable 3.5 mph - 0.04 in Rain Light Rain
7:53 AM 52.0 °F - 46.9 °F 83% 30.12 in 10.0 mi North - - 0.01 in   Overcast
8:07 AM 52.0 °F - 46.9 °F 83% 30.14 in 10.0 mi Variable 4.6 mph - N/A   Overcast
8:53 AM 50.0 °F - 44.1 °F 80% 30.17 in 10.0 mi North 9.2 mph 20.7 mph N/A   Mostly Cloudy
9:53 AM 51.1 °F - 42.1 °F 71% 30.22 in 10.0 mi Variable 6.9 mph 17.3 mph N/A   Clear
10:53 AM 52.0 °F - 39.9 °F 63% 30.25 in 10.0 mi NNW 9.2 mph - N/A   Clear
11:53 AM 52.0 °F - 37.0 °F 57% 30.25 in 10.0 mi NNW 8.1 mph - N/A   Scattered Clouds
12:53 PM 54.0 °F - 36.0 °F 51% 30.24 in 10.0 mi NNW 5.8 mph - N/A   Partly Cloudy
1:53 PM 55.0 °F - 36.0 °F 49% 30.21 in 10.0 mi Calm Calm - N/A   Clear
2:53 PM 55.9 °F - 30.9 °F 39% 30.20 in 10.0 mi Variable 4.6 mph - N/A   Clear
3:53 PM 57.0 °F - 30.0 °F 36% 30.20 in 10.0 mi Variable 3.5 mph - N/A   Clear
4:53 PM 54.0 °F - 28.9 °F 38% 30.22 in 10.0 mi NNW 4.6 mph - N/A   Clear
5:53 PM 50.0 °F - 28.0 °F 43% 30.23 in 10.0 mi Variable 5.8 mph - N/A   Clear
6:53 PM 48.9 °F - 28.9 °F 46% 30.27 in 10.0 mi North 4.6 mph - N/A   Clear
7:53 PM 48.0 °F - 30.0 °F 50% 30.27 in 10.0 mi NNW 3.5 mph - N/A   Clear
8:53 PM 46.9 °F - 28.9 °F 50% 30.29 in 10.0 mi Variable 5.8 mph - N/A   Clear
9:53 PM 46.0 °F 44.8 °F 28.9 °F 51% 30.30 in 10.0 mi NNW 3.5 mph - N/A   Clear
10:53 PM 43.0 °F 41.3 °F 30.9 °F 62% 30.31 in 10.0 mi NW 3.5 mph - N/A   Clear
11:53 PM 39.0 °F - 32.0 °F 76% 30.33 in 10.0 mi Calm Calm - N/A   Clear